Regional Weather Roundup
Issued by NWS Northern Indiana

Home | Current Version | Previous Version | Text Only | Print | Product List | Glossary Off
Versions: 1 2 3 4 5 6 7 8 9 10 11 12 13 14 15 16 17 18 19 20 21 22 23 24 25 26 27 28 29 30 31 32 33 34 35 36 37 38 39 40 41 42 43 44 45 46 47 48 49 50

000
ASUS43 KIWX 231110
RWRIWX

KIWX WEATHER ROUNDUP
NATIONAL WEATHER SERVICE NORTHERN INDIANA
700 AM EDT WED APR 23 2014

NOTE: "FAIR" INDICATES FEW OR NO CLOUDS BELOW 12,000 FEET WITH NO
SIGNIFICANT WEATHER AND/OR OBSTRUCTIONS TO VISIBILITY.

* THESE STATIONS ARE NOT UNDER NWS QUALITY CONTROL. THEY ALSO MAY NOT
  REPORT WEATHER SUCH AS PRECIPITATION OR FOG.

INZ001>027-231200-
NORTHERN INDIANA

CITY           SKY/WX    TMP DP  RH WIND       PRES   REMARKS
GARY*          CLEAR     37  28  70 N14G29    30.15R
VALPARAISO     CLEAR     33  26  75 N8        30.11R WCI  26
MICHIGAN CITY* CLEAR     34  28  80 N7        30.13R WCI  28
LAPORTE*       CLEAR     32  28  83 N9        30.12R WCI  24
SOUTH BEND     CLEAR     32  25  75 N7        30.12R WCI  26
ELKHART*       CLEAR     32  25  74 N6        30.10  WCI  26
GOSHEN         CLEAR     33  27  78 N8        30.09R WCI  26
MONTICELLO*    CLEAR     33  29  86 N9        30.09S WCI  25
LOGANSPORT*    CLEAR     32  28  86 NW7       30.10R WCI  26
ROCHESTER*     CLEAR     36  30  80 N8        30.10R
WARSAW*        CLEAR     32  28  86 N6        30.09R WCI  26
ANGOLA*        CLEAR     32  27  80 N7        30.07R WCI  26
FORT WAYNE     CLEAR     34  27  75 NW10      30.07R WCI  26
HUNTINGTON*    FAIR      33  28  82 N6        30.07R WCI  27
PERU/GRISSOM   CLEAR     33  33 100 NW6       30.08R WCI  28
MARION*        CLEAR     33  27  77 N6        30.08R WCI  28

$$
INZ028>050-231200-
CENTRAL INDIANA

CITY           SKY/WX    TMP DP  RH WIND       PRES   REMARKS
LAFAYETTE      CLEAR     33  27  78 NW3       30.12R
KOKOMO*        CLEAR     34  27  75 N7        30.08R WCI  28
MUNCIE*        CLEAR     33  28  81 NW7       30.06R WCI  27
INDIANAPOLIS   CLEAR     34  27  75 NW7       30.07R WCI  28

$$
MIZ043>046-050>051-056>058-064>065-071>073-077>080-231200-
SOUTHWEST LOWER MICHIGAN

CITY           SKY/WX    TMP DP  RH WIND       PRES   REMARKS
BATTLE CREEK   CLEAR     32  25  75 N7        30.08R WCI  26
BENTON HARBOR  CLEAR     33  30  88 N9        30.13R WCI  25
COLDWATER*     CLEAR     31  27  83 NW6       30.08R WCI  25
HILLSDALE*     CLOUDY    35  27  73 N13       30.05R WCI  26
HOLLAND        CLEAR     34  26  72 VRB5      30.13R WCI  30
GRAND RAPIDS   CLEAR     32  26  78 NW8       30.10R WCI  25
KALAMAZOO      CLEAR     31  25  78 N9        30.09R WCI  23
STURGIS*       CLEAR     30  27  86 NW3       30.08S
THREE RIVERS*  FAIR      33  26  77 NW6       30.10S WCI  27

$$
OHZ001>008-015>018-024>025-231200-
NORTHWEST OHIO

CITY           SKY/WX    TMP DP  RH WIND       PRES   REMARKS
WAUSEON*       CLOUDY    36  30  80 N9G17     30.05R
DEFIANCE       CLEAR     34  27  75 N8        30.07R WCI  27
FINDLAY        CLEAR     34  28  79 NW8       30.03R WCI  27
TOLEDO EXPRESS CLOUDY    37  28  70 NW14      30.04R
TOLEDO METCALF CLOUDY    38  28  67 NW10      30.05R
LIMA           CLEAR     35  28  75 N9        30.03R WCI  28

$$
&&



USA.gov is the U.S. government's official web portal to all federal, state and local government web resources and services.